Location: Peebles
(55.6412°N, 3.1714°W)
Time: 22:41:46
(UTC+01:00)

CENTAUR R/B - Pass Details

Date: 23 January 2022
Orbit: 716 x 1471 km, 63.4° (Epoch: 08 May)

Event Time Altitude Azimuth Distance (km) Brightness Sun altitude
Rises 17:35:56 0° 233° (SW) 3,483 7.1 -9.3°
Reaches altitude 10° 17:38:14 10° 234° (SW) 2,635 6.2 -9.6°
Maximum altitude 17:44:28 83° 323° (NW) 1,080 2.8 -10.4°
Enters shadow 17:51:41 12° 52° (NE) 3,046 4.5 -11.4°
